Wind_Speed
17 17 17 18 18 18 20 21 21 19 18 18 18 17 17 16 14 13 12 11 9 9 9 10 11 11 12 12 12 11 11 12 12 12 12 11 11 11 11 11 11 11 10 10 9 9 8 9 9
17 17 16 17 18 19 20 21 21 20 19 19 18 17 16 15 14 14 13 11 9 8 9 10 11 11 12 12 12 12 12 12 12 11 12 11 11 11 11 10 10 10 10 9 9 8 8 8 9
15 16 16 16 18 19 20 21 20 20 19 18 18 17 16 14 13 13 12 10 9 8 9 10 10 11 11 11 11 11 11 11 11 11 11 11 11 10 10 10 10 10 10 9 8 8 8 8 8
14 15 15 17 19 19 20 20 20 20 19 18 17 17 15 14 13 12 12 10 9 9 9 10 10 10 11 11 11 11 11 11 11 11 11 11 10 10 10 10 9 9 9 8 8 7 7 7 7
12 13 14 16 18 19 20 21 20 19 18 17 16 16 15 13 12 12 11 11 10 9 10 10 10 10 10 10 10 10 10 10 10 10 10 10 9 9 9 9 9 9 9 8 8 8 8 8 8
11 12 13 15 16 18 19 20 19 18 18 17 16 16 15 13 12 12 11 11 10 9 9 10 10 10 9 9 9 9 9 9 9 9 9 9 9 9 9 9 8 8 9 8 8 8 8 8 8
9 11 12 14 16 17 18 19 18 18 18 17 16 16 16 14 13 12 12 11 10 10 10 9 9 8 8 8 8 7 7 8 8 8 8 8 9 8 9 8 8 8 8 8 8 8 8 8 8
7 9 11 13 15 16 17 18 18 17 18 17 17 17 16 15 13 13 12 11 10 9 9 8 8 7 7 7 6 7 7 7 7 8 7 8 7 8 8 7 7 7 8 8 8 8 8 8 8
6 8 10 12 14 15 17 17 17 16 17 17 17 17 16 15 14 13 12 11 10 9 9 8 7 6 7 6 6 6 6 6 7 7 7 7 7 7 7 6 6 7 7 7 8 7 8 8 7
5 7 9 10 12 14 15 15 15 15 16 17 17 17 17 15 14 13 13 12 10 9 8 7 6 6 6 6 6 6 6 6 6 6 6 6 6 6 6 6 6 6 6 6 7 7 7 7 7
4 5 8 9 11 12 13 14 14 15 16 17 17 17 16 15 14 13 13 12 12 10 8 7 6 5 5 6 5 5 5 5 5 5 5 4 4 5 5 5 5 6 6 6 6 6 6 6 6
3 4 5 7 9 11 12 13 13 14 15 15 16 16 16 15 14 14 14 13 12 11 10 8 7 5 6 5 5 5 5 4 4 4 4 4 4 4 4 5 5 5 5 5 5 5 5 5 6
2 2 3 5 7 9 10 12 13 14 14 14 15 15 15 15 14 14 14 13 12 11 10 8 7 6 6 5 5 5 5 3 3 3 3 4 4 4 4 4 4 4 4 4 4 4 4 4 4
2 1 1 2 5 7 9 10 11 13 13 13 14 14 14 14 14 13 13 12 11 11 10 9 8 6 6 5 4 4 4 4 4 3 3 3 3 2 2 3 3 3 4 3 3 3 3 3 3
3 3 2 1 3 5 7 9 9 11 11 12 13 12 13 13 13 13 13 12 12 11 10 9 8 6 5 4 4 4 3 4 4 4 3 2 2 1 1 1 1 2 3 2 2 2 2 2 1
6 5 4 2 1 3 5 7 7 8 10 10 11 12 11 13 13 13 12 11 11 11 10 9 8 7 6 4 4 3 3 3 3 3 3 3 2 1 0 1 1 0 1 1 1 1 1 1 0
8 6 5 4 2 1 3 5 5 6 8 9 10 11 11 12 13 12 11 10 10 10 10 9 7 6 5 4 3 3 2 2 2 2 2 2 2 1 1 1 2 1 1 1 1 0 1 1 1
9 8 7 6 4 2 2 3 4 4 6 8 8 9 9 10 11 11 10 9 9 9 8 8 7 6 4 4 3 3 3 3 3 2 2 1 1 1 2 2 3 3 3 2 2 3 3 3 3
11 10 9 7 5 4 2 1 2 2 4 7 8 8 8 9 10 11 9 8 8 8 7 7 7 6 4 3 3 4 4 3 3 3 3 3 3 3 3 4 4 5 5 4 4 5 5 6 6
14 12 11 9 8 6 5 4 2 2 4 5 6 7 8 9 10 10 9 9 8 8 7 6 7 6 4 3 3 4 4 4 3 4 4 4 4 4 4 5 5 6 6 6 6 7 8 8 8
15 14 13 12 11 9 7 5 4 3 4 5 6 7 8 9 10 10 10 10 9 7 6 6 7 7 6 4 4 4 5 5 4 4 5 5 5 5 6 7 7 8 8 8 8 9 9 10 10
17 15 14 13 12 11 9 7 5 5 5 6 6 7 8 10 11 10 10 10 9 7 7 6 7 7 7 6 5 5 5 6 5 5 5 5 6 6 7 8 9 9 10 10 10 10 11 11 12
19 17 16 15 15 13 11 9 7 6 6 6 7 7 9 10 12 12 11 9 9 8 8 7 7 7 7 6 6 6 7 7 7 6 6 6 7 7 8 8 9 10 11 12 12 13 13 13 13
21 20 18 17 16 15 12 11 8 8 7 7 7 8 10 11 12 12 10 10 10 9 10 8 7 7 6 6 6 7 7 8 8 9 8 8 8 8 8 9 10 11 11 12 14 15 15 15 15
23 21 20 19 17 15 13 12 10 10 9 9 9 9 11 11 12 11 11 11 10 9 9 9 8 7 7 7 7 7 7 8 8 9 9 9 9 9 9 10 11 12 13 14 14 15 16 16 16
23 22 21 21 19 16 15 14 11 10 10 10 9 10 11 10 10 10 11 11 11 10 10 9 9 8 7 7 6 6 7 7 8 9 9 10 10 10 10 11 12 13 14 15 15 15 16 16 16
25 24 23 23 21 19 17 15 11 10 10 9 9 10 10 10 10 10 11 11 11 10 10 9 8 8 8 8 7 7 8 8 9 10 9 9 9 10 10 11 12 13 14 15 14 14 15 15 15
27 25 25 24 22 20 18 16 12 11 11 10 10 9 10 10 10 11 12 11 10 10 9 9 8 8 8 8 8 9 8 9 9 10 9 9 9 9 10 11 11 12 13 13 13 13 13 14 14
27 27 25 25 23 22 19 16 14 13 12 11 10 10 11 11 12 12 12 10 10 10 9 8 9 9 9 9 9 9 9 9 9 9 9 9 9 9 10 11 11 12 12 12 12 12 13 13 13
29 27 26 25 24 22 20 17 16 15 13 12 11 11 11 12 13 13 11 10 10 10 10 9 9 10 10 10 9 9 9 9 9 9 9 9 9 9 10 11 11 11 11 11 12 12 12 13 13
Wind_Direction
71 71 68 67 66 65 61 59 56 55 57 59 59 58 57 58 61 62 60 60 60 64 70 74 74 75 75 74 74 71 68 62 62 60 58 60 63 66 71 73 75 75 75 76 78 83 85 86 86
70 69 67 66 67 67 62 59 55 53 54 55 55 54 55 57 59 60 60 59 59 65 71 72 74 76 75 74 73 70 67 63 61 60 60 61 64 66 69 73 74 73 75 75 77 79 83 84 83
68 68 66 64 66 67 63 60 55 52 51 52 53 52 52 53 57 58 59 57 57 63 69 72 74 75 75 74 72 69 66 63 61 62 62 64 67 66 67 68 70 68 70 71 73 79 85 84 83
65 66 63 62 64 65 64 62 57 51 49 49 51 51 50 50 52 55 56 56 57 63 69 72 74 77 76 75 75 71 67 64 63 63 63 64 67 66 65 65 66 65 65 68 72 79 85 86 84
65 65 64 62 62 63 63 61 57 52 48 47 50 50 48 47 50 54 56 57 57 62 68 71 74 76 75 74 73 72 70 66 64 65 65 65 67 67 65 62 63 65 65 67 73 77 85 86 86
63 63 63 60 58 61 61 59 57 54 49 46 48 50 48 45 47 52 53 52 53 58 66 73 76 76 75 71 68 70 71 68 66 66 66 64 65 66 65 62 62 66 67 70 73 78 84 89 88
62 60 60 59 56 56 58 55 55 52 48 45 47 49 48 44 42 47 46 44 47 54 62 70 74 73 72 72 67 66 68 69 67 68 68 65 66 67 65 62 63 67 70 71 75 78 82 87 91
63 60 59 57 54 52 55 55 54 50 47 45 46 47 45 41 39 41 41 39 43 50 57 64 70 70 69 72 67 63 65 71 67 68 68 68 67 68 66 63 61 63 68 71 74 77 81 85 89
54 60 60 55 55 55 55 57 55 49 46 44 43 43 42 37 36 36 36 38 42 51 56 60 70 73 71 71 71 67 68 73 70 68 67 70 69 65 63 62 61 63 65 70 73 77 79 83 86
41 57 58 54 55 55 54 55 54 50 45 41 39 39 38 34 33 32 32 34 39 46 52 58 67 76 76 74 71 69 69 78 77 71 71 73 70 66 63 64 65 63 65 72 75 77 79 82 84
26 50 55 54 54 53 55 56 53 49 43 40 38 37 35 32 31 30 31 33 39 44 47 51 57 74 82 79 78 78 79 84 80 73 66 72 72 68 67 69 69 69 72 77 79 80 81 84 85
11 29 50 52 56 55 57 58 53 47 43 39 36 35 34 32 33 33 32 33 36 41 46 50 52 65 84 84 80 80 88 89 82 70 63 73 73 70 73 73 71 72 76 81 87 86 85 85 85
353 19 46 55 59 57 58 58 52 45 41 35 32 33 33 31 31 32 31 31 35 38 40 44 48 50 72 78 75 72 75 82 80 72 63 69 75 81 85 79 71 78 80 82 85 83 82 82 87
280 302 351 34 46 52 54 56 52 43 37 34 30 32 32 31 30 30 30 31 33 36 39 43 47 49 62 74 73 68 60 56 62 66 64 67 73 79 90 85 78 84 84 84 80 72 72 79 85
246 254 261 5 50 53 50 49 43 38 30 30 30 32 33 31 29 28 29 30 30 33 37 39 39 41 52 58 62 57 55 52 48 53 57 59 56 64 133 127 98 91 85 88 85 78 69 67 69
239 242 246 258 59 54 46 43 31 31 19 23 29 32 33 28 26 26 25 27 29 30 31 33 33 34 37 41 47 51 48 38 36 36 42 49 50 58 173 214 228 338 53 78 88 107 77 23 307
239 243 250 263 262 29 41 39 31 20 8 12 24 29 28 23 21 21 21 23 25 26 25 24 25 28 29 27 21 18 13 1 356 3 23 14 20 27 276 261 249 264 281 293 316 236 278 301 291
239 246 252 264 268 291 359 24 26 10 358 2 16 20 20 16 12 14 15 18 20 19 20 19 20 18 21 16 1 352 349 346 339 314 298 308 330 321 288 275 267 266 272 279 288 286 283 285 286
238 242 249 255 270 288 294 324 357 6 353 354 3 8 11 9 6 7 5 5 7 7 9 13 15 12 8 3 352 344 347 340 316 304 289 277 280 290 289 280 282 278 280 279 283 284 282 281 279
236 239 249 253 260 269 267 267 283 326 340 348 354 359 359 359 0 357 353 357 358 359 4 6 3 1 357 336 328 334 335 333 313 291 281 273 273 274 277 278 277 284 281 274 275 278 279 279 280
235 238 245 247 255 263 264 272 282 297 315 330 339 344 345 345 347 349 352 353 351 348 349 352 356 352 345 328 307 311 316 315 313 305 293 280 275 276 279 280 281 283 283 278 277 277 279 278 281
234 236 238 244 250 260 270 278 282 291 300 314 324 331 336 338 341 341 345 351 353 349 341 333 336 337 333 323 307 301 300 298 299 301 293 282 280 279 277 278 283 281 281 281 279 281 284 281 282
232 235 237 242 249 254 264 273 279 287 299 308 315 319 327 333 339 337 338 346 350 345 336 319 319 330 325 314 303 297 292 288 288 288 288 281 278 279 278 278 281 281 282 282 281 281 282 283 284
231 234 237 242 249 253 263 273 280 292 298 306 314 311 316 324 330 331 331 332 337 337 331 329 322 317 319 312 305 294 291 289 285 283 282 281 278 279 281 278 281 283 285 285 285 283 283 285 286
231 235 238 243 249 256 264 270 280 287 290 298 305 306 310 318 324 326 330 330 328 327 325 326 323 322 323 314 306 295 293 291 289 284 280 281 280 279 283 283 283 286 289 288 285 283 285 286 286
233 236 240 245 250 256 262 270 281 284 286 292 298 305 311 315 319 322 326 327 329 327 326 323 324 316 313 309 307 298 300 299 297 292 285 283 279 278 284 289 288 288 291 290 288 287 286 287 287
231 235 239 243 248 253 260 268 275 277 279 289 302 308 309 314 318 322 323 325 324 327 328 325 322 315 307 301 296 298 302 298 298 296 288 285 280 280 288 293 294 294 293 292 290 292 290 290 286
230 234 238 243 248 253 259 265 269 268 274 285 295 303 307 314 319 322 321 319 318 319 319 322 320 311 311 305 304 303 300 299 301 298 291 287 284 287 294 298 302 302 298 293 293 294 293 291 290
232 233 238 243 247 252 257 261 264 265 273 282 288 296 302 308 311 312 313 313 314 314 315 316 318 311 309 306 301 301 298 294 298 299 295 289 288 293 296 301 305 304 303 302 299 297 296 293 288
231 234 238 242 248 252 256 257 260 262 268 278 283 293 301 308 309 311 311 311 314 314 313 312 315 313 312 310 305 299 295 297 295 295 294 290 292 294 296 301 305 307 307 308 303 299 297 297 293
Height
5904 5903 5902 5902 5901 5899 5896 5896 5894 5894 5894 5893 5892 5891 5891 5891 5891 5893 5890 5889 5889 5889 5888 5888 5887 5887 5887 5887 5887 5888 5888 5888 5888 5888 5888 5888 5888 5888 5888 5888 5888 5888 5888 5888 5889 5889 5888 5888 5888
5907 5906 5906 5904 5902 5900 5899 5898 5897 5896 5896 5895 5894 5893 5893 5892 5892 5892 5891 5891 5890 5890 5889 5889 5888 5888 5888 5888 5889 5889 5889 5889 5890 5890 5890 5890 5890 5890 5890 5890 5890 5890 5890 5890 5890 5890 5890 5890 5890
5909 5909 5909 5907 5904 5903 5902 5900 5900 5899 5898 5897 5896 5895 5895 5895 5894 5893 5893 5892 5892 5891 5890 5890 5890 5889 5890 5890 5890 5891 5891 5891 5891 5891 5891 5891 5891 5892 5892 5892 5891 5891 5891 5891 5891 5891 5891 5891 5891
5912 5912 5911 5909 5907 5906 5904 5903 5902 5901 5900 5900 5899 5898 5897 5897 5896 5895 5894 5894 5893 5892 5891 5891 5891 5891 5891 5891 5891 5892 5892 5892 5892 5893 5893 5893 5893 5893 5893 5893 5893 5893 5893 5893 5892 5892 5892 5892 5893
5914 5914 5913 5911 5909 5908 5907 5905 5904 5904 5903 5902 5901 5900 5899 5899 5898 5896 5896 5895 5894 5893 5893 5892 5892 5892 5892 5893 5893 5893 5893 5893 5893 5894 5894 5894 5894 5894 5894 5894 5894 5894 5894 5894 5894 5894 5894 5894 5894
5916 5915 5914 5913 5912 5910 5909 5908 5907 5906 5905 5905 5904 5902 5901 5901 5900 5898 5897 5897 5896 5895 5894 5893 5893 5893 5894 5894 5894 5894 5894 5894 5894 5895 5895 5895 5895 5895 5895 5895 5895 5895 5895 5895 5895 5895 5895 5895 5895
5917 5916 5915 5915 5914 5913 5911 5910 5909 5909 5908 5907 5906 5905 5903 5902 5901 5900 5899 5898 5897 5896 5895 5895 5894 5894 5895 5895 5895 5895 5895 5895 5895 5895 5896 5896 5896 5896 5896 5897 5896 5896 5896 5896 5896 5896 5896 5896 5896
5918 5918 5916 5916 5915 5915 5914 5912 5911 5911 5910 5909 5908 5906 5905 5904 5903 5901 5900 5899 5898 5897 5896 5896 5896 5896 5896 5896 5896 5896 5896 5896 5896 5897 5897 5897 5897 5897 5897 5898 5897 5897 5897 5897 5897 5897 5897 5897 5897
5919 5919 5917 5917 5917 5917 5916 5914 5914 5913 5912 5911 5909 5908 5907 5906 5904 5903 5901 5900 5899 5898 5897 5897 5897 5897 5897 5897 5897 5897 5897 5897 5897 5897 5898 5898 5898 5898 5898 5898 5898 5898 5898 5898 5898 5898 5898 5898 5898
5920 5920 5919 5919 5918 5918 5917 5917 5916 5915 5914 5913 5911 5910 5908 5907 5906 5904 5903 5901 5900 5899 5898 5898 5898 5898 5898 5898 5898 5898 5898 5898 5898 5898 5898 5899 5899 5899 5899 5899 5899 5899 5899 5899 5899 5899 5899 5899 5899
5921 5921 5920 5920 5920 5919 5919 5919 5918 5917 5916 5915 5914 5912 5911 5909 5908 5906 5904 5903 5901 5900 5899 5899 5899 5898 5898 5898 5898 5899 5899 5899 5899 5899 5899 5899 5900 5900 5900 5900 5900 5900 5900 5900 5900 5900 5900 5900 5900
5922 5922 5922 5921 5921 5921 5920 5920 5920 5919 5919 5917 5916 5914 5913 5911 5910 5908 5906 5904 5903 5901 5901 5900 5900 5899 5899 5899 5899 5899 5899 5899 5900 5900 5900 5900 5900 5901 5901 5901 5901 5901 5901 5901 5901 5901 5901 5901 5901
5923 5923 5923 5923 5922 5922 5922 5922 5921 5921 5920 5919 5918 5916 5915 5913 5911 5909 5908 5906 5905 5903 5902 5902 5901 5900 5900 5900 5900 5900 5900 5900 5900 5900 5900 5900 5901 5901 5901 5902 5902 5902 5902 5902 5902 5902 5902 5902 5902
5923 5923 5923 5923 5923 5923 5923 5923 5923 5922 5922 5921 5920 5918 5916 5914 5913 5911 5909 5907 5906 5905 5904 5903 5902 5902 5901 5901 5901 5901 5901 5900 5900 5900 5900 5901 5901 5902 5902 5902 5902 5902 5902 5902 5902 5902 5902 5902 5903
5923 5923 5923 5923 5924 5923 5924 5924 5924 5923 5923 5922 5921 5919 5917 5916 5914 5912 5911 5909 5907 5906 5905 5904 5904 5902 5902 5903 5902 5902 5901 5902 5901 5901 5901 5901 5902 5902 5902 5902 5903 5903 5903 5903 5903 5903 5903 5903 5903
5922 5923 5923 5923 5923 5924 5926 5925 5925 5924 5924 5923 5921 5920 5918 5917 5915 5914 5912 5911 5909 5908 5907 5906 5905 5904 5904 5904 5903 5903 5902 5902 5902 5902 5902 5901 5901 5902 5902 5902 5903 5903 5903 5903 5903 5903 5903 5903 5903
5921 5922 5922 5923 5923 5924 5924 5924 5925 5924 5924 5923 5922 5920 5919 5918 5916 5915 5913 5912 5911 5909 5908 5907 5906 5906 5905 5905 5904 5903 5903 5903 5902 5902 5902 5902 5902 5902 5902 5902 5903 5903 5903 5903 5903 5903 5903 5903 5903
5920 5921 5922 5922 5923 5924 5924 5924 5924 5924 5924 5924 5922 5921 5920 5919 5917 5916 5914 5913 5912 5910 5909 5908 5907 5906 5906 5905 5905 5904 5903 5903 5902 5902 5902 5902 5902 5902 5902 5902 5902 5902 5903 5903 5902 5902 5902 5902 5902
5919 5920 5921 5922 5923 5923 5924 5924 5924 5924 5924 5924 5922 5921 5920 5919 5917 5916 5914 5913 5912 5911 5910 5908 5907 5906 5906 5905 5905 5904 5903 5903 5902 5902 5902 5902 5902 5902 5902 5902 5902 5902 5902 5902 5902 5902 5901 5901 5901
5917 5919 5920 5921 5921 5923 5923 5923 5924 5924 5924 5923 5923 5921 5920 5918 5917 5915 5914 5912 5911 5910 5909 5908 5907 5906 5905 5905 5904 5903 5903 5902 5902 5901 5901 5901 5901 5901 5901 5902 5901 5901 5901 5901 5901 5900 5900 5900 5900
5915 5917 5919 5920 5920 5921 5922 5923 5923 5924 5923 5923 5922 5921 5920 5918 5916 5914 5913 5911 5910 5910 5909 5907 5906 5905 5905 5904 5903 5903 5902 5902 5901 5901 5900 5900 5900 5900 5900 5900 5900 5900 5900 5899 5899 5899 5898 5898 5898
5913 5915 5917 5918 5919 5920 5922 5922 5922 5922 5923 5922 5922 5921 5919 5918 5916 5914 5912 5910 5909 5908 5907 5906 5905 5904 5903 5903 5902 5902 5901 5901 5900 5900 5900 5899 5899 5899 5899 5899 5898 5898 5898 5897 5897 5897 5896 5896 5895
5911 5912 5914 5916 5917 5918 5919 5921 5922 5921 5921 5921 5921 5920 5919 5917 5915 5913 5911 5910 5908 5907 5906 5904 5903 5902 5902 5901 5901 5900 5900 5899 5899 5899 5899 5898 5898 5897 5897 5897 5896 5896 5895 5895 5895 5894 5894 5893 5893
5907 5910 5912 5913 5915 5917 5918 5919 5920 5920 5920 5920 5920 5919 5918 5916 5914 5912 5910 5908 5907 5906 5904 5902 5901 5900 5900 5900 5899 5899 5898 5897 5897 5897 5897 5896 5896 5895 5895 5894 5894 5893 5893 5892 5892 5891 5891 5890 5889
5904 5907 5909 5911 5912 5914 5916 5916 5918 5918 5918 5918 5918 5917 5916 5914 5913 5911 5909 5907 5906 5905 5903 5902 5901 5899 5899 5898 5897 5897 5896 5896 5895 5895 5895 5895 5894 5893 5893 5892 5892 5891 5890 5889 5889 5888 5887 5886 5885
5901 5904 5907 5909 5910 5912 5913 5914 5917 5916 5916 5916 5915 5915 5914 5913 5912 5910 5909 5907 5905 5903 5901 5900 5899 5899 5898 5897 5896 5895 5894 5894 5893 5893 5893 5892 5892 5891 5891 5890 5889 5889 5887 5886 5885 5884 5884 5883 5881
5897 5900 5903 5905 5907 5909 5910 5912 5914 5914 5914 5914 5914 5913 5912 5911 5910 5909 5907 5905 5904 5902 5900 5898 5898 5897 5896 5895 5894 5893 5892 5892 5891 5890 5890 5890 5889 5889 5888 5888 5887 5885 5884 5883 5882 5881 5880 5879 5878
5893 5896 5899 5901 5903 5905 5907 5909 5911 5911 5912 5912 5912 5911 5910 5909 5908 5907 5905 5904 5902 5901 5899 5897 5896 5895 5894 5894 5893 5891 5890 5890 5889 5888 5888 5888 5887 5887 5886 5885 5884 5882 5881 5879 5878 5877 5876 5876 5875
5889 5892 5895 5897 5900 5902 5904 5908 5908 5909 5909 5910 5909 5909 5908 5907 5906 5905 5903 5902 5901 5899 5898 5896 5895 5893 5892 5891 5890 5889 5888 5887 5887 5886 5886 5886 5885 5884 5884 5882 5881 5880 5878 5877 5876 5874 5873 5872 5871
5884 5888 5891 5894 5896 5898 5901 5906 5905 5906 5906 5907 5907 5906 5905 5904 5903 5902 5901 5900 5899 5898 5896 5895 5893 5892 5891 5889 5888 5887 5886 5885 5885 5884 5884 5883 5883 5882 5881 5880 5879 5877 5875 5874 5873 5872 5871 5869 5868